[[{"header":{"parameterUnit":"m.s-1","parameterCategory":1,"la1":30.2991,"la2":30.254,"lo1":-89.0895,"lo2":-89.0444,"dy":0.0017,"dx":0.0017,"nx":28,"ny":28,"refTime":"2024-05-30T21:00:00:Z","depth":0,"parameterNumber":2,"parameterNumberName":"U-component_of_WINDS"},"data":[0,0,0,0,0,0,0,0,0,0,0,0,0,0,0,0,0,0,0,0,0,0,0,0,0,0,0,0,0,0,0,0,0,0,0,0,0,0,0,0,0,0,0,0,0,0,0,0,0,0,0,0,0,0,0,0,0,0,-1.4575,-1.4575,0,-1.4617,-1.4617,-1.4618,-1.4631,-1.4631,-1.463,-1.463,-1.4675,-1.4676,-1.4678,0,0,0,0,0,0,0,0,0,0,0,0,0,-1.4509,-1.451,-1.4575,-1.4575,-1.4576,-1.4617,-1.4617,-1.4618,-1.4631,-1.4631,-1.463,-1.463,-1.4675,-1.4676,-1.4678,0,0,0,0,0,0,0,0,0,0,0,0,0,-1.4543,-1.451,-1.4575,-1.4587,-1.4589,-1.4616,-1.4617,-1.4618,-1.4631,-1.4631,-1.463,-1.463,-1.4674,-1.4676,-1.4678,-1.4697,0,0,-1.4684,-1.4685,0,0,0,0,0,0,0,0,-1.4541,-1.4545,-1.4585,-1.4586,-1.4588,-1.4618,-1.461,-1.4644,-1.4631,-1.4615,-1.463,-1.463,-1.4656,-1.466,-1.4669,-1.4699,-1.4701,-1.4685,-1.4686,-1.4687,-1.4687,0,0,0,0,0,0,0,-1.4538,-1.4543,-1.4591,-1.4585,-1.4588,-1.4592,-1.4596,-1.4617,-1.4637,-1.4616,-1.4617,-1.4622,-1.4657,-1.4666,-1.467,-1.4701,-1.4684,-1.4686,-1.4688,-1.4688,-1.475,-1.475,0,0,0,0,0,0,-1.4533,-1.4541,-1.459,-1.4593,-1.4563,-1.4593,-1.4598,-1.4609,-1.4637,-1.4641,-1.4622,-1.4623,-1.4663,-1.4667,-1.4671,-1.4695,-1.4687,-1.4689,-1.469,-1.4749,-1.475,-1.475,0,0,0,0,0,0,-1.4532,-1.4538,-1.4588,-1.4567,-1.4574,-1.4594,-1.4607,-1.461,-1.4619,-1.4641,-1.4645,-1.4628,-1.4663,-1.4668,-1.469,-1.4697,-1.469,-1.4691,-1.4749,-1.4749,-1.475,-1.4743,0,0,0,0,0,0,-1.453,-1.4537,-1.4544,-1.4567,-1.4575,-1.4606,-1.4607,-1.4611,-1.4622,-1.4623,-1.4647,-1.4651,-1.4663,-1.4687,-1.4692,-1.47,-1.4693,-1.4748,-1.4749,-1.475,-1.4743,-1.4743,-1.4744,0,0,0,0,0,-1.4528,-1.4541,-1.4544,-1.455,-1.4584,-1.4606,-1.4611,-1.4624,-1.4623,-1.463,-1.4644,-1.465,-1.4695,-1.4689,-1.4695,-1.4703,-1.4748,-1.4749,-1.475,-1.4742,-1.4743,-1.4744,0,0,0,0,0,0,-1.4518,-1.4544,-1.4548,-1.4569,-1.4585,-1.4609,-1.4618,-1.4624,-1.4642,-1.4642,-1.4658,-1.4663,-1.4684,-1.4696,-1.4689,-1.4723,-1.4722,-1.4724,-1.4714,-1.4715,-1.4716,-1.4713,-1.4695,0,0,0,0,0,-1.4519,-1.4534,-1.4556,-1.4572,-1.458,-1.4598,-1.4608,-1.4617,-1.4634,-1.4642,-1.4657,-1.4675,-1.4693,-1.4705,-1.4723,-1.4744,-1.475,-1.4753,-1.4753,-1.4754,-1.4755,-1.4768,-1.477,-1.4753,-1.4753,-1.4753,0,0,-1.452,-1.4535,-1.4544,-1.4571,-1.4584,-1.4601,-1.4603,-1.4621,-1.4633,-1.4644,-1.4666,-1.4678,-1.4699,-1.4721,-1.4731,-1.4731,-1.4761,-1.4755,-1.4755,-1.4757,-1.4769,-1.4771,-1.4772,-1.4754,-1.4753,-1.4753,0,0,-1.453,-1.4543,-1.4558,-1.4572,-1.4592,-1.4603,-1.4607,-1.4629,-1.4638,-1.4659,-1.4668,-1.4684,-1.4715,-1.4729,-1.474,-1.4756,-1.4762,-1.4761,-1.4764,-1.4776,-1.4777,-1.4779,-1.4785,-1.4786,-1.4763,-1.4763,-1.4763,0,-1.4529,-1.4553,-1.4565,-1.4582,-1.4593,-1.4604,-1.462,-1.4632,-1.4658,-1.4666,-1.4665,-1.4704,-1.4719,-1.4744,-1.4748,-1.4757,-1.4762,-1.4759,-1.4776,-1.4777,-1.4779,-1.4785,-1.4787,-1.4763,-1.4763,-1.4763,-1.4763,0,-1.455,-1.4567,-1.4577,-1.46,-1.4613,-1.4629,-1.4645,-1.4656,-1.4664,-1.4676,-1.4698,-1.4716,-1.4738,-1.4744,-1.4752,-1.4771,-1.477,-1.4773,-1.4772,-1.478,-1.4786,-1.4788,-1.4762,-1.4762,-1.4762,-1.4763,0,0,-1.4556,-1.4586,-1.459,-1.46,-1.4623,-1.4637,-1.4654,-1.4674,-1.4684,-1.4701,-1.4716,-1.4742,-1.4744,-1.4757,-1.4767,-1.4777,-1.4788,-1.4778,-1.4779,-1.478,-1.4811,-1.4809,-1.4811,-1.4793,-1.4793,-1.4794,-1.4809,0,-1.457,-1.4599,-1.4611,-1.4635,-1.4651,-1.4661,-1.4676,-1.4692,-1.4703,-1.4719,-1.4732,-1.475,-1.4751,-1.4759,-1.477,-1.4785,-1.4795,-1.4784,-1.4807,-1.4808,-1.4802,-1.4814,-1.4813,-1.4827,-1.4812,-1.4812,-1.4812,0,-1.4589,-1.4606,-1.4631,-1.4652,-1.4659,-1.4672,-1.4692,-1.4707,-1.4725,-1.4733,-1.4747,-1.4756,-1.4775,-1.4772,-1.4799,-1.4791,-1.4801,-1.481,-1.4811,-1.4814,-1.4811,-1.4818,-1.4831,-1.4834,-1.4816,-1.4815,-1.4815,0,-1.4591,-1.462,-1.4639,-1.4648,-1.4673,-1.4682,-1.4693,-1.4711,-1.4723,-1.474,-1.4748,-1.4768,-1.4779,-1.4794,-1.4808,-1.4805,-1.4833,-1.4832,-1.4841,-1.484,-1.4846,-1.4846,-1.4862,-1.4852,-1.4852,-1.4852,-1.4852,0,-1.4605,-1.4621,-1.464,-1.4652,-1.467,-1.4683,-1.4701,-1.4712,-1.4729,-1.4743,-1.4753,-1.4767,-1.4785,-1.4801,-1.4812,-1.4832,-1.4837,-1.4844,-1.4847,-1.4844,-1.4843,-1.4851,-1.4851,-1.4853,-1.4853,-1.4853,-1.4853,0,-1.4611,-1.4625,-1.4646,-1.4668,-1.4673,-1.4685,-1.4704,-1.4716,-1.4728,-1.4747,-1.4752,-1.477,-1.479,-1.4805,-1.4831,-1.4839,-1.486,-1.4863,-1.4854,-1.4855,-1.4863,-1.4862,-1.4885,-1.4889,-1.4876,-1.4876,-1.4877,0,-1.4619,-1.4631,-1.4654,-1.4664,-1.4674,-1.4691,-1.4702,-1.4716,-1.4728,-1.475,-1.476,-1.478,-1.4797,-1.4827,-1.4844,-1.4864,-1.4868,-1.4874,-1.4871,-1.4867,-1.4868,-1.4867,-1.4869,-1.4875,-1.4875,-1.4875,-1.4875,0,-1.4633,-1.4639,-1.4655,-1.4673,-1.4686,-1.4702,-1.4717,-1.4725,-1.4742,-1.4755,-1.4774,-1.4787,-1.4813,-1.4833,-1.4855,-1.4867,-1.4874,-1.4876,-1.4879,-1.4876,-1.487,-1.4873,-1.4855,-1.4875,-1.4875,-1.4875,-1.4875,-1.4875,-1.4641,-1.4652,-1.4669,-1.4686,-1.4699,-1.4713,-1.4726,-1.4739,-1.4755,-1.4776,-1.4784,-1.4804,-1.4823,-1.4852,-1.4864,-1.4881,-1.4881,-1.4886,-1.4887,-1.4888,-1.4888,-1.4866,-1.4885,-1.4885,-1.4885,-1.4885,-1.4885,0,-1.4655,-1.4666,-1.4682,-1.4703,-1.4717,-1.4721,-1.4738,-1.475,-1.4767,-1.4784,-1.48,-1.4822,-1.4842,-1.4859,-1.4879,-1.4889,-1.4893,-1.4894,-1.4894,-1.4897,-1.4886,-1.4881,-1.4891,-1.4891,-1.4891,-1.4891,-1.4891,-1.4891,-1.4664,-1.4683,-1.4691,-1.4716,-1.4728,-1.4747,-1.4757,-1.477,-1.4783,-1.4808,-1.4823,-1.4834,-1.4851,-1.4873,-1.4891,-1.4896,-1.4903,-1.4903,-1.4909,-1.4898,-1.4898,-1.4897,-1.4893,-1.4905,-1.4905,-1.4919,-1.4919,-1.4919]},{"header":{"parameterUnit":"m.s-1","parameterCategory":1,"la1":30.2991,"la2":30.254,"lo1":-89.0895,"lo2":-89.0444,"dy":0.0017,"dx":0.0017,"nx":28,"ny":28,"refTime":"2024-05-30T21:00:00:Z","depth":0,"parameterNumber":3,"parameterNumberName":"V-component_of_WINDS"},"data":[0,0,0,0,0,0,0,0,0,0,0,0,0,0,0,0,0,0,0,0,0,0,0,0,0,0,0,0,0,0,0,0,0,0,0,0,0,0,0,0,0,0,0,0,0,0,0,0,0,0,0,0,0,0,0,0,0,0,6.662,6.662,0,6.666,6.666,6.6661,6.6595,6.6593,6.6591,6.6589,6.6625,6.6628,6.6631,0,0,0,0,0,0,0,0,0,0,0,0,0,6.6481,6.6484,6.6619,6.662,6.6621,6.666,6.666,6.6661,6.6596,6.6593,6.659,6.6588,6.6624,6.6628,6.6632,0,0,0,0,0,0,0,0,0,0,0,0,0,6.6533,6.6484,6.6619,6.6593,6.6591,6.666,6.666,6.6661,6.6596,6.6593,6.659,6.6587,6.6623,6.6628,6.6632,6.6727,0,0,6.6646,6.6648,0,0,0,0,0,0,0,0,6.653,6.6538,6.6596,6.6595,6.6593,6.6619,6.6625,6.6683,6.6597,6.6594,6.6589,6.6585,6.6626,6.663,6.6645,6.6729,6.673,6.6646,6.6649,6.6651,6.6652,0,0,0,0,0,0,0,6.6526,6.6536,6.6635,6.6597,6.6595,6.6577,6.6581,6.6635,6.6628,6.6594,6.659,6.6595,6.6624,6.664,6.6645,6.6731,6.6646,6.665,6.6653,6.6655,6.6892,6.6896,0,0,0,0,0,0,6.6527,6.6533,6.6634,6.6636,6.6553,6.6582,6.6586,6.6614,6.6627,6.6626,6.6598,6.6592,6.6634,6.664,6.6646,6.6756,6.6651,6.6655,6.6658,6.6889,6.6893,6.6897,0,0,0,0,0,0,6.6524,6.6536,6.6632,6.6584,6.6595,6.6588,6.662,6.6617,6.6633,6.663,6.6628,6.6617,6.6632,6.6639,6.6707,6.6756,6.6657,6.6662,6.6885,6.689,6.6895,6.6978,0,0,0,0,0,0,6.652,6.6536,6.6573,6.6585,6.6597,6.6695,6.6623,6.662,6.6641,6.6634,6.6647,6.6646,6.663,6.6701,6.6712,6.6761,6.6665,6.688,6.6887,6.6893,6.6971,6.6986,6.6998,0,0,0,0,0,6.6516,6.6595,6.6576,6.6588,6.6644,6.6698,6.6705,6.6686,6.6646,6.6682,6.668,6.6645,6.675,6.6708,6.672,6.6771,6.6877,6.6885,6.6893,6.6965,6.6983,6.6998,0,0,0,0,0,0,6.6587,6.6596,6.6575,6.666,6.6679,6.6687,6.6732,6.6706,6.6735,6.6727,6.67,6.6704,6.6776,6.6781,6.6734,6.6863,6.6806,6.6817,6.6857,6.6874,6.6888,6.6884,6.6669,0,0,0,0,0,6.6613,6.6658,6.6662,6.6737,6.6748,6.6739,6.6761,6.6745,6.6763,6.677,6.6773,6.679,6.6826,6.6851,6.6884,6.6972,6.6972,6.7013,6.7027,6.7038,6.7047,6.7091,6.7109,6.6923,6.6923,6.6923,0,0,6.6667,6.6677,6.6706,6.6752,6.6764,6.6809,6.6746,6.6796,6.6828,6.6777,6.6841,6.6844,6.6861,6.6939,6.6973,6.6944,6.7098,6.7048,6.7057,6.706,6.7101,6.7119,6.7134,6.6929,6.6928,6.6927,0,0,6.6787,6.68,6.6863,6.6877,6.6898,6.6891,6.6906,6.6918,6.6918,6.6982,6.6945,6.6982,6.7046,6.7059,6.7074,6.7198,6.7166,6.721,6.7281,6.7324,6.7339,6.7352,6.7394,6.7409,6.7219,6.722,6.722,0,6.685,6.6918,6.6898,6.6951,6.6971,6.6929,6.699,6.7005,6.7034,6.7048,6.7016,6.7095,6.7103,6.7182,6.7213,6.7227,6.7242,6.7207,6.7339,6.7351,6.7363,6.7403,6.7419,6.7224,6.7224,6.7223,6.7223,0,6.6994,6.7041,6.7089,6.712,6.7145,6.7202,6.7189,6.7217,6.7199,6.7195,6.7259,6.7269,6.7302,6.732,6.7303,6.7396,6.7378,6.7343,6.7285,6.7386,6.7423,6.7438,6.7232,6.723,6.7228,6.7227,0,0,6.7159,6.7179,6.7196,6.7209,6.7228,6.7263,6.7317,6.7352,6.7375,6.7397,6.744,6.7495,6.7462,6.7479,6.7463,6.7502,6.7597,6.7461,6.7461,6.7484,6.7698,6.7723,6.7741,6.7577,6.758,6.7582,6.7696,0,6.7277,6.7372,6.7356,6.7447,6.7489,6.7449,6.7496,6.7511,6.7509,6.7543,6.754,6.7578,6.7534,6.7543,6.758,6.7578,6.7639,6.7569,6.7614,6.7616,6.7609,6.776,6.7787,6.7894,6.771,6.7713,6.7715,0,6.7427,6.7455,6.7551,6.7562,6.7579,6.7622,6.7651,6.7684,6.7701,6.7696,6.7715,6.7691,6.7743,6.7686,6.7756,6.7709,6.7727,6.7728,6.7732,6.7733,6.767,6.7764,6.7928,6.7943,6.7738,6.7736,6.7734,0,6.7535,6.7597,6.7662,6.7674,6.769,6.772,6.7727,6.7741,6.7762,6.7787,6.78,6.7831,6.7847,6.787,6.7854,6.7815,6.7926,6.7868,6.7921,6.7922,6.7945,6.7943,6.8112,6.796,6.796,6.796,6.7959,0,6.7667,6.7727,6.7711,6.775,6.7815,6.7795,6.7859,6.7862,6.7874,6.7912,6.7879,6.7915,6.7893,6.7927,6.7915,6.7973,6.7981,6.7977,6.7973,6.7979,6.7979,6.7988,6.7979,6.7964,6.7963,6.7962,6.7962,0,6.7798,6.7791,6.7858,6.7867,6.7871,6.7918,6.7924,6.796,6.7956,6.8004,6.8014,6.8006,6.8044,6.8031,6.8072,6.8063,6.8137,6.8124,6.8132,6.8128,6.8181,6.8175,6.8359,6.8381,6.8218,6.8219,6.8221,0,6.7882,6.7927,6.7941,6.7965,6.7975,6.8013,6.8035,6.8016,6.804,6.8061,6.8094,6.8129,6.8156,6.8218,6.8215,6.8246,6.8232,6.8294,6.8236,6.824,6.823,6.8226,6.823,6.8305,6.8307,6.8308,6.831,0,6.8031,6.8025,6.8058,6.8089,6.8116,6.8139,6.816,6.8181,6.8163,6.8191,6.823,6.8251,6.8292,6.8327,6.8354,6.8359,6.8331,6.8329,6.8342,6.8347,6.8349,6.8347,6.8161,6.8324,6.8322,6.8321,6.8321,6.832,6.8139,6.8177,6.8192,6.8229,6.8243,6.8262,6.8296,6.8296,6.8329,6.8361,6.8348,6.8392,6.8406,6.8439,6.8449,6.8482,6.8458,6.8478,6.8482,6.8487,6.8493,6.8346,6.8487,6.8487,6.8486,6.8486,6.8486,0,6.8284,6.8292,6.8327,6.8357,6.8385,6.8358,6.8379,6.8404,6.8444,6.846,6.8487,6.8531,6.8564,6.8564,6.8594,6.862,6.8608,6.8629,6.8625,6.8627,6.8514,6.8498,6.8638,6.8638,6.8638,6.8638,6.8638,6.8638,6.8363,6.8424,6.842,6.8486,6.8493,6.8537,6.8551,6.8568,6.858,6.8631,6.8658,6.8659,6.8667,6.8698,6.8726,6.8725,6.8737,6.8762,6.8756,6.865,6.8635,6.862,6.8605,6.8765,6.8766,6.8866,6.8867,6.8867]}]]